Wind_Speed
8 8 9 10 9 10 11 7 3 8 7 8 19 18 14 12 13 8 5 11 9 8 6 5 5 4 6 6 9 9 8 6 5 6 7 8 7 6 5 4 3 4 6 7 8 10 11 11 12
11 12 12 11 9 8 11 6 13 15 8 7 13 25 9 10 15 12 7 12 12 11 10 7 7 8 7 8 8 10 9 8 6 8 10 10 9 8 6 4 4 3 5 7 8 10 11 11 11
15 15 13 11 7 11 15 6 19 16 10 12 21 24 19 14 15 15 11 16 14 14 13 12 10 10 10 11 11 12 11 10 8 9 10 10 10 10 8 6 5 6 6 8 9 10 11 12 12
21 18 14 12 7 13 19 6 12 24 9 15 19 26 22 18 18 15 11 11 13 16 18 18 14 14 13 13 13 13 13 12 11 11 11 12 12 12 11 9 6 7 7 8 9 10 10 11 12
23 22 17 12 11 14 7 5 14 18 24 24 19 22 14 12 25 13 9 10 15 16 18 19 19 18 15 15 15 16 15 14 13 12 12 13 13 14 13 11 8 8 7 8 9 8 10 10 11
24 25 19 14 12 12 7 6 20 28 27 20 25 20 18 18 17 15 11 5 14 15 16 18 21 21 18 16 16 16 16 15 15 14 14 14 14 15 15 13 9 9 9 9 11 10 9 9 10
22 24 22 19 16 18 9 2 26 31 35 25 22 22 18 11 15 17 17 9 14 17 19 17 17 19 19 17 17 17 17 17 16 15 15 15 16 16 17 15 11 10 10 9 11 12 10 11 10
23 26 26 23 18 17 14 5 30 35 33 30 29 20 13 14 14 19 21 18 14 19 18 17 17 19 18 17 18 19 18 19 17 18 16 15 17 18 20 19 14 11 11 11 12 12 12 11 11
27 26 24 21 18 25 12 10 24 34 36 32 26 21 18 15 14 18 23 22 16 19 16 13 11 14 17 15 17 19 19 19 20 19 18 16 17 19 21 20 17 12 12 12 12 14 13 13 13
24 22 19 19 23 33 23 18 17 30 36 35 24 18 12 18 17 16 23 23 16 16 17 12 10 11 14 16 17 18 21 20 21 19 18 17 19 20 20 21 20 15 11 13 13 15 15 14 11
21 19 20 21 30 33 32 25 33 30 39 33 30 18 12 15 17 19 20 25 22 19 17 16 15 11 13 16 17 18 19 20 21 21 19 19 20 21 22 22 21 17 14 13 15 16 18 12 9
21 22 23 28 32 37 37 36 35 43 32 35 28 22 18 19 14 18 21 28 25 17 14 18 21 18 17 17 17 17 18 19 19 19 20 19 20 23 21 22 22 20 17 15 17 18 17 14 12
21 21 23 28 34 39 36 42 41 43 36 34 25 26 22 25 20 16 23 29 28 25 21 17 19 19 16 18 15 16 18 19 19 18 17 17 20 22 23 24 23 22 20 19 21 18 16 18 14
22 21 22 28 31 31 28 20 31 40 39 32 26 29 30 30 26 17 17 29 27 27 19 9 21 21 8 12 16 15 17 19 19 19 18 17 17 19 23 24 27 24 23 23 24 22 20 22 19
22 23 25 22 26 26 25 24 24 36 35 29 26 32 30 33 24 18 17 28 29 28 24 13 11 12 14 9 11 14 16 19 20 21 21 18 18 19 20 21 25 25 28 26 24 26 22 26 23
18 17 16 17 21 22 22 19 28 34 32 28 27 32 34 30 30 25 24 22 30 32 30 28 23 19 23 18 16 18 18 17 20 22 25 25 21 21 22 22 23 24 26 28 25 26 27 29 29
10 2 9 19 22 20 19 21 29 30 31 26 26 29 28 27 32 32 27 28 27 31 32 32 31 30 30 30 26 23 23 23 21 23 23 28 26 26 25 27 26 26 27 28 29 26 29 25 33
11 2 5 10 12 13 19 24 27 31 32 31 24 27 25 26 32 34 31 31 31 28 30 32 33 32 32 32 29 28 26 26 25 26 27 27 30 30 32 31 30 27 28 28 29 31 32 35 40
15 10 2 13 21 18 18 26 29 26 28 30 27 27 29 28 30 33 34 33 34 33 31 30 31 33 33 32 33 32 30 31 31 31 32 32 34 36 36 37 38 33 30 31 31 34 31 33 37
23 22 17 13 16 21 23 22 28 31 31 24 24 21 27 30 30 32 34 35 35 34 34 31 30 32 38 34 33 34 35 36 36 36 36 38 38 40 42 42 42 43 38 35 35 35 35 34 36
28 26 31 23 14 14 12 24 35 35 31 25 19 23 25 27 29 29 30 32 34 34 33 33 32 31 33 35 32 33 36 37 39 40 41 42 44 43 45 46 49 49 46 41 41 40 40 38 38
27 35 38 36 31 27 20 16 32 36 38 27 25 22 26 24 23 26 31 32 33 34 35 34 34 35 35 37 38 34 37 39 41 45 45 50 49 46 51 46 54 54 53 50 47 47 45 44 43
27 27 31 37 40 38 38 28 29 37 37 28 27 19 19 27 28 24 25 29 32 35 36 38 39 38 40 41 43 44 42 43 44 45 46 47 54 46 54 37 70 57 57 57 57 55 53 49 50
21 21 21 20 22 26 13 17 23 27 30 32 28 27 30 28 23 23 27 29 31 33 34 36 39 41 43 44 45 46 47 49 51 51 51 47 61 49 56 61 31 45 48 57 60 61 59 54 56
24 20 20 20 18 19 11 21 29 30 25 28 28 32 27 21 31 32 34 37 34 34 35 36 37 39 41 44 46 48 51 52 53 54 57 57 59 58 61 54 59 51 59 53 54 59 63 59 58
18 15 21 21 21 21 17 24 22 32 38 35 32 31 27 32 35 39 38 31 33 35 37 38 40 40 41 42 44 47 49 51 54 56 56 59 59 62 63 62 62 66 70 56 49 44 43 49 51
26 23 23 28 22 21 26 22 23 22 29 31 33 37 34 35 40 40 35 36 40 40 40 41 42 42 43 44 45 46 48 49 51 53 55 57 59 56 61 60 63 67 65 69 67 63 52 49 63
30 28 28 26 26 26 22 12 18 27 29 33 35 36 34 33 34 34 38 42 45 43 43 42 42 42 43 44 45 47 49 51 53 55 56 56 57 56 56 57 59 62 64 61 66 63 66 65 70
28 26 25 28 27 29 26 23 25 29 30 31 36 41 41 40 42 40 40 41 43 43 43 41 40 39 39 39 41 44 47 49 52 55 57 58 60 60 59 60 61 62 65 62 65 65 65 65 66
34 33 29 27 28 29 29 31 33 34 38 44 46 45 46 48 44 42 41 43 42 42 42 41 40 39 40 41 43 45 47 49 51 54 56 59 62 65 66 66 67 67 68 70 68 67 68 69 68
Wind_Direction
237 229 230 231 233 227 223 281 258 191 188 36 246 245 243 263 279 289 303 303 292 290 309 298 270 251 261 245 253 246 240 245 257 267 266 251 239 240 255 268 228 162 130 133 131 127 122 116 116
240 230 226 228 236 227 233 282 323 283 106 243 283 265 255 256 271 287 297 288 286 280 281 290 272 257 249 247 243 247 241 238 244 260 260 251 238 235 248 259 244 186 150 144 140 129 122 117 109
245 243 234 229 236 227 225 358 302 292 346 320 262 258 261 240 258 273 278 278 275 270 269 266 266 253 249 244 241 240 243 241 238 247 258 252 241 229 236 239 247 204 172 157 154 142 129 118 114
245 244 244 231 209 222 255 32 278 308 301 313 271 259 260 255 257 267 263 270 280 272 265 262 261 248 243 243 241 238 242 243 243 245 246 251 246 235 231 225 238 216 188 179 167 150 141 130 125
244 243 240 238 215 227 236 177 310 297 294 293 271 249 262 269 267 257 254 284 277 283 277 270 263 251 241 243 240 240 235 239 242 246 244 247 244 242 236 232 231 221 202 190 174 169 157 142 137
242 242 236 231 214 219 120 14 285 291 292 288 264 267 257 248 264 265 241 275 284 295 297 288 260 250 242 242 240 244 245 238 239 239 245 250 244 241 237 236 231 227 210 199 193 180 176 160 155
238 237 232 224 214 210 132 212 270 283 283 286 272 272 282 262 247 251 252 251 284 284 298 294 260 244 239 238 240 242 249 244 240 236 243 248 250 245 240 237 233 226 216 209 208 194 185 176 182
233 233 227 219 209 193 96 269 250 266 273 279 276 268 274 280 269 255 255 251 277 282 299 290 260 242 241 239 246 243 245 247 242 245 244 247 253 251 244 237 232 224 220 209 218 214 191 200 202
232 235 229 221 207 156 158 235 264 267 270 264 261 272 275 268 272 261 271 263 276 290 291 280 278 265 249 253 254 256 251 249 250 248 249 252 256 256 249 245 240 232 223 216 219 223 214 208 219
230 233 224 217 197 172 178 242 237 257 263 263 257 265 264 271 280 270 264 275 260 271 285 285 275 280 263 258 256 261 257 254 253 254 255 254 257 260 254 249 241 237 231 227 226 232 227 225 232
224 226 217 204 198 192 188 215 230 234 252 261 262 260 252 268 284 274 273 281 277 260 265 273 272 280 295 273 259 260 261 259 258 260 257 256 256 257 260 258 249 240 240 243 239 239 239 234 239
226 221 215 222 222 218 203 204 228 236 265 256 267 267 260 257 274 280 285 284 279 273 267 258 261 268 283 287 273 268 265 260 262 264 265 260 257 260 259 260 255 246 247 250 249 243 250 240 229
224 220 215 220 230 238 234 212 220 236 251 259 259 267 266 261 248 254 285 286 290 287 285 276 261 271 278 282 278 275 275 269 267 271 273 268 258 257 258 261 258 254 248 250 254 250 250 253 242
212 213 216 218 230 244 241 236 233 238 246 246 253 266 269 252 249 255 263 277 285 286 287 284 276 267 253 278 286 276 274 273 272 273 277 276 272 268 262 260 258 254 254 255 256 255 244 245 240
226 213 218 219 226 236 236 235 238 244 250 251 241 248 259 269 275 264 270 271 271 275 273 260 241 262 262 252 282 289 270 271 272 272 274 274 275 271 278 274 266 261 260 256 255 259 248 248 242
227 232 233 224 227 234 235 231 236 247 254 252 248 246 252 261 265 264 258 263 269 273 277 271 265 266 276 272 266 275 280 269 268 269 272 276 275 277 274 272 277 275 269 263 257 251 241 247 247
200 91 251 233 231 231 241 241 249 253 256 253 246 250 255 263 264 260 255 264 265 271 274 277 271 270 279 282 274 264 269 273 266 263 261 270 275 274 275 275 274 272 269 269 263 248 242 252 261
161 136 324 288 253 249 257 257 264 259 260 259 254 257 256 247 256 262 260 258 264 264 266 271 274 275 273 276 275 270 266 267 264 263 260 255 260 267 268 268 270 272 271 269 266 262 250 249 252
139 160 43 205 240 236 257 269 268 260 255 258 259 263 263 256 252 259 261 261 263 266 269 270 272 273 272 269 269 267 266 265 265 262 260 257 253 256 259 263 264 262 259 260 260 264 261 260 261
172 169 156 193 238 251 245 258 272 269 261 256 255 256 262 262 260 256 259 260 263 266 265 267 265 267 269 269 269 272 269 266 264 262 259 257 255 254 258 257 257 261 258 254 257 260 262 260 259
195 201 186 190 219 230 233 234 255 263 271 259 264 257 256 263 262 259 260 259 258 259 262 263 264 266 268 266 264 263 268 267 269 265 260 258 259 257 253 257 259 255 255 255 255 256 260 263 262
219 219 213 208 212 231 233 232 242 259 268 267 259 260 261 261 274 265 261 260 259 259 260 260 261 263 266 268 268 261 261 264 263 263 264 262 255 257 252 245 244 249 255 255 253 254 256 259 265
251 249 243 237 244 252 248 247 252 259 271 278 269 269 275 282 280 284 281 272 268 264 262 264 264 262 262 265 268 271 267 264 268 269 269 273 263 263 248 248 230 241 245 248 249 248 250 253 256
254 244 244 241 241 245 252 264 271 269 272 269 268 277 271 278 258 303 301 291 283 276 271 267 265 266 266 266 267 269 271 272 270 271 272 273 271 276 240 246 244 237 245 254 255 252 250 250 253
260 259 259 252 246 253 295 281 278 269 264 269 276 270 263 254 284 287 289 293 285 283 281 278 274 272 270 270 270 270 272 273 274 274 275 275 276 277 272 271 269 267 258 246 251 257 251 252 251
270 281 282 272 246 239 228 256 265 244 259 261 254 256 261 281 289 287 290 288 286 286 283 280 278 276 275 275 274 274 274 276 277 278 279 280 280 280 279 280 277 273 268 271 260 249 259 252 252
260 281 277 269 279 260 238 254 265 266 261 254 271 276 272 282 291 289 285 289 292 290 285 282 279 277 274 273 273 273 274 275 278 280 281 282 286 281 280 279 279 278 274 277 273 264 271 267 257
268 270 269 276 274 263 245 280 267 266 259 266 271 278 279 278 280 283 285 290 291 287 283 280 279 276 274 273 273 273 274 274 275 277 279 280 282 285 284 284 284 278 279 273 275 273 268 273 275
267 272 268 260 256 264 267 250 257 264 273 268 273 275 276 275 276 283 286 288 287 285 282 277 275 271 269 269 269 271 273 275 276 278 279 280 281 282 281 280 280 278 277 276 273 271 269 269 267
272 276 272 276 272 262 258 258 262 271 270 275 278 278 275 273 277 279 279 285 286 285 280 274 270 268 267 270 276 281 281 279 280 281 282 283 284 284 284 283 281 278 276 276 273 270 269 266 253
Height
5907 5908 5908 5909 5913 5910 5909 5906 5909 5906 5906 5911 5919 5918 5920 5918 5916 5921 5922 5918 5919 5919 5920 5921 5922 5923 5923 5923 5924 5924 5924 5925 5926 5926 5927 5927 5928 5928 5929 5929 5928 5926 5926 5927 5927 5926 5926 5926 5926
5905 5906 5907 5908 5910 5909 5910 5903 5902 5908 5896 5915 5920 5912 5918 5916 5914 5917 5920 5917 5918 5917 5918 5919 5920 5921 5922 5922 5923 5924 5923 5924 5924 5926 5926 5927 5927 5928 5929 5929 5929 5928 5928 5927 5927 5927 5927 5927 5928
5902 5903 5906 5907 5908 5908 5906 5904 5910 5914 5910 5911 5912 5912 5913 5914 5911 5913 5917 5914 5915 5914 5915 5917 5918 5919 5920 5921 5922 5922 5923 5923 5923 5924 5926 5927 5927 5927 5928 5929 5929 5929 5928 5928 5928 5928 5928 5929 5929
5899 5900 5903 5906 5907 5908 5905 5900 5910 5904 5908 5912 5906 5906 5908 5909 5908 5914 5916 5912 5912 5912 5913 5913 5915 5916 5918 5919 5920 5920 5921 5922 5923 5924 5925 5926 5927 5928 5928 5928 5928 5928 5929 5929 5929 5929 5929 5929 5930
5895 5897 5900 5902 5905 5905 5902 5900 5910 5906 5907 5910 5905 5904 5908 5904 5904 5907 5912 5912 5909 5911 5911 5912 5913 5914 5915 5917 5918 5919 5919 5920 5921 5923 5923 5924 5925 5926 5927 5927 5927 5928 5929 5929 5929 5930 5930 5930 5930
5890 5892 5897 5900 5903 5903 5903 5907 5909 5906 5906 5907 5903 5904 5905 5906 5903 5905 5909 5911 5908 5909 5909 5909 5909 5911 5913 5915 5916 5917 5918 5917 5919 5920 5922 5923 5923 5924 5925 5926 5926 5927 5928 5929 5929 5929 5929 5930 5929
5885 5887 5892 5895 5899 5900 5901 5907 5905 5905 5902 5902 5898 5897 5900 5903 5901 5901 5905 5909 5907 5906 5907 5906 5906 5908 5909 5911 5913 5915 5916 5916 5917 5918 5919 5921 5922 5922 5923 5924 5925 5926 5928 5928 5928 5927 5928 5928 5928
5880 5881 5885 5890 5894 5898 5902 5908 5904 5897 5899 5900 5896 5894 5900 5901 5902 5901 5901 5908 5906 5904 5905 5904 5904 5904 5907 5909 5911 5912 5913 5915 5915 5916 5917 5918 5920 5920 5921 5922 5923 5923 5926 5927 5927 5926 5925 5927 5925
5873 5876 5881 5886 5891 5895 5898 5900 5900 5897 5895 5894 5894 5895 5897 5899 5899 5899 5896 5904 5905 5902 5903 5902 5903 5904 5906 5907 5909 5911 5912 5913 5914 5914 5915 5916 5918 5918 5919 5920 5922 5922 5924 5925 5924 5924 5924 5923 5923
5868 5873 5879 5883 5885 5885 5887 5895 5893 5892 5889 5887 5892 5894 5896 5895 5897 5896 5895 5899 5905 5902 5899 5901 5901 5902 5903 5904 5906 5908 5910 5911 5912 5913 5913 5914 5915 5916 5918 5918 5920 5922 5922 5923 5922 5922 5922 5922 5922
5865 5870 5874 5876 5875 5877 5882 5890 5887 5885 5885 5885 5883 5891 5895 5894 5894 5895 5895 5893 5899 5902 5900 5898 5899 5901 5902 5902 5903 5905 5907 5909 5910 5911 5911 5911 5912 5913 5915 5917 5918 5920 5921 5922 5921 5920 5919 5922 5922
5861 5864 5869 5870 5871 5871 5876 5882 5884 5882 5883 5882 5882 5887 5891 5892 5891 5890 5891 5889 5890 5897 5899 5897 5895 5898 5900 5899 5902 5903 5904 5906 5908 5908 5909 5909 5910 5910 5912 5914 5916 5917 5919 5919 5918 5917 5917 5920 5919
5857 5859 5863 5865 5866 5867 5872 5876 5879 5878 5879 5880 5884 5882 5885 5885 5890 5889 5885 5884 5883 5887 5895 5897 5895 5896 5899 5896 5898 5899 5901 5903 5904 5905 5906 5907 5907 5908 5909 5911 5913 5913 5915 5916 5915 5915 5915 5916 5918
5851 5854 5858 5860 5863 5865 5871 5874 5876 5873 5873 5879 5882 5879 5875 5878 5883 5892 5889 5881 5883 5881 5887 5892 5892 5891 5896 5894 5894 5895 5897 5899 5901 5902 5903 5904 5905 5905 5905 5907 5908 5909 5911 5912 5912 5913 5912 5911 5913
5846 5848 5851 5857 5859 5861 5865 5869 5871 5864 5868 5874 5877 5873 5876 5873 5880 5885 5887 5880 5879 5879 5883 5887 5890 5887 5889 5892 5892 5891 5893 5895 5897 5898 5899 5900 5901 5902 5903 5904 5904 5904 5904 5907 5908 5910 5910 5909 5909
5843 5847 5850 5853 5854 5857 5859 5863 5858 5857 5861 5867 5868 5869 5870 5875 5875 5880 5881 5878 5875 5876 5877 5880 5884 5884 5882 5887 5889 5889 5888 5890 5892 5894 5894 5895 5896 5897 5898 5900 5900 5899 5900 5901 5901 5905 5904 5901 5903
5841 5844 5847 5848 5850 5852 5855 5856 5854 5855 5855 5861 5864 5866 5869 5870 5869 5870 5875 5874 5873 5871 5871 5872 5875 5878 5877 5877 5882 5885 5885 5885 5886 5887 5890 5889 5890 5891 5893 5894 5895 5894 5894 5896 5896 5899 5899 5898 5894
5835 5840 5842 5843 5845 5847 5848 5850 5851 5850 5850 5853 5860 5861 5864 5866 5862 5863 5866 5868 5868 5869 5868 5868 5868 5872 5874 5874 5874 5875 5876 5877 5878 5879 5881 5883 5883 5884 5886 5887 5887 5889 5889 5889 5889 5892 5895 5894 5887
5833 5839 5840 5841 5843 5845 5847 5844 5844 5845 5847 5848 5852 5855 5854 5857 5859 5858 5858 5860 5861 5864 5865 5865 5864 5864 5867 5868 5866 5867 5868 5869 5871 5870 5871 5874 5876 5874 5875 5878 5878 5880 5882 5882 5880 5880 5886 5887 5886
5831 5835 5837 5836 5840 5840 5840 5839 5838 5838 5839 5844 5847 5851 5849 5848 5851 5853 5851 5853 5855 5855 5856 5856 5857 5857 5856 5859 5860 5861 5861 5861 5861 5861 5862 5861 5865 5866 5865 5867 5868 5867 5871 5873 5873 5874 5873 5877 5880
5829 5830 5828 5831 5831 5831 5837 5835 5830 5830 5830 5837 5843 5843 5843 5843 5844 5845 5846 5846 5848 5848 5848 5849 5849 5850 5850 5849 5851 5852 5850 5852 5852 5850 5851 5851 5852 5856 5855 5858 5859 5857 5858 5864 5864 5865 5867 5865 5868
5823 5825 5826 5825 5826 5828 5830 5833 5828 5825 5823 5829 5834 5836 5839 5839 5838 5838 5837 5838 5839 5840 5840 5839 5840 5842 5841 5840 5839 5841 5842 5841 5841 5842 5840 5840 5839 5840 5838 5841 5839 5843 5845 5851 5855 5854 5856 5857 5857
5819 5821 5823 5826 5828 5827 5826 5824 5827 5821 5818 5823 5825 5830 5832 5832 5831 5831 5832 5832 5832 5832 5833 5831 5831 5831 5832 5831 5830 5829 5831 5831 5830 5830 5830 5830 5829 5832 5836 5819 5798 5825 5828 5829 5834 5837 5840 5844 5845
5813 5814 5815 5817 5818 5818 5824 5822 5818 5816 5816 5815 5818 5824 5826 5825 5825 5824 5823 5824 5824 5824 5824 5824 5823 5821 5821 5821 5820 5820 5818 5818 5818 5817 5820 5815 5814 5816 5819 5820 5805 5815 5819 5820 5818 5823 5826 5828 5829
5806 5808 5809 5810 5810 5811 5814 5811 5809 5807 5807 5809 5812 5814 5817 5820 5818 5818 5817 5815 5815 5816 5815 5814 5813 5812 5811 5810 5810 5809 5807 5806 5805 5806 5805 5806 5806 5808 5807 5805 5802 5802 5811 5812 5803 5806 5811 5814 5816
5801 5802 5803 5802 5803 5803 5805 5802 5801 5803 5801 5799 5800 5802 5807 5811 5811 5808 5808 5808 5807 5807 5806 5806 5804 5802 5801 5799 5799 5798 5797 5795 5792 5791 5792 5791 5792 5793 5792 5791 5791 5793 5793 5796 5796 5795 5799 5802 5805
5798 5799 5798 5795 5798 5797 5799 5796 5796 5797 5796 5795 5795 5796 5799 5800 5800 5799 5798 5799 5799 5797 5796 5795 5794 5792 5791 5789 5788 5787 5786 5784 5782 5779 5778 5776 5774 5778 5777 5777 5777 5775 5775 5776 5783 5779 5784 5787 5792
5791 5792 5792 5791 5789 5789 5792 5788 5788 5788 5790 5787 5785 5787 5791 5792 5791 5790 5791 5789 5788 5787 5786 5785 5783 5781 5780 5778 5777 5776 5774 5773 5771 5769 5767 5765 5763 5760 5761 5759 5759 5761 5761 5765 5764 5769 5770 5774 5776
5783 5784 5784 5783 5783 5781 5783 5786 5782 5781 5781 5782 5780 5780 5782 5783 5782 5784 5782 5782 5778 5777 5776 5775 5774 5772 5770 5769 5767 5766 5765 5762 5760 5757 5754 5751 5749 5748 5747 5747 5746 5746 5746 5746 5748 5750 5752 5755 5758
5777 5777 5774 5775 5778 5777 5775 5775 5774 5774 5775 5773 5768 5768 5769 5771 5773 5776 5777 5774 5770 5768 5765 5764 5764 5763 5761 5759 5757 5755 5753 5750 5748 5745 5741 5737 5732 5729 5727 5726 5726 5728 5727 5726 5728 5730 5731 5735 5739